TimeEDT,TemperatureF,Dew PointF,Humidity,Sea Level PressureIn,VisibilityMPH,Wind Direction,Wind SpeedMPH,Gust SpeedMPH,PrecipitationIn,Events,Conditions,WindDirDegrees,DateUTC
12:52 AM,66.0,64.0,93,29.88,3.0,Calm,Calm,-,N/A,,Partly Cloudy,0,2012-09-06 04:52:00
1:52 AM,64.9,64.0,97,29.88,4.0,Calm,Calm,-,N/A,,Partly Cloudy,0,2012-09-06 05:52:00
2:52 AM,63.0,62.1,97,29.88,4.0,South,4.6,-,N/A,,Clear,190,2012-09-06 06:52:00
3:52 AM,64.0,63.0,96,29.88,4.0,West,3.5,-,N/A,,Clear,260,2012-09-06 07:52:00
4:50 AM,64.4,62.6,94,29.91,0.5,SW,3.5,-,N/A,Fog,Fog,220,2012-09-06 08:50:00
4:52 AM,64.0,63.0,96,29.89,0.5,SW,3.5,-,N/A,Fog,Fog,220,2012-09-06 08:52:00
5:02 AM,64.4,62.6,94,29.91,0.5,SW,3.5,-,N/A,Fog,Fog,230,2012-09-06 09:02:00
5:24 AM,64.4,62.6,94,29.91,0.5,SSW,3.5,-,N/A,Fog,Fog,210,2012-09-06 09:24:00
5:52 AM,64.0,62.1,93,29.90,0.5,Calm,Calm,-,N/A,Fog,Fog,0,2012-09-06 09:52:00
5:56 AM,64.4,62.6,94,29.92,0.2,Calm,Calm,-,N/A,Fog,Fog,0,2012-09-06 09:56:00
6:34 AM,64.4,62.6,94,29.94,0.2,Calm,Calm,-,N/A,Fog,Fog,0,2012-09-06 10:34:00
6:52 AM,64.0,63.0,96,29.92,0.2,Calm,Calm,-,N/A,Fog,Fog,0,2012-09-06 10:52:00
6:57 AM,64.4,62.6,94,29.94,0.2,Calm,Calm,-,N/A,Fog,Fog,0,2012-09-06 10:57:00
7:52 AM,64.9,64.0,97,29.94,0.1,Calm,Calm,-,N/A,Fog,Fog,0,2012-09-06 11:52:00
8:34 AM,66.2,64.4,94,29.97,0.2,SW,3.5,-,N/A,Fog,Fog,230,2012-09-06 12:34:00
8:52 AM,66.0,64.9,96,29.94,0.2,SW,3.5,-,N/A,Fog,Fog,230,2012-09-06 12:52:00
9:06 AM,66.2,64.4,94,29.96,0.2,SW,3.5,-,N/A,Fog,Fog,220,2012-09-06 13:06:00
9:52 AM,68.0,66.0,93,29.96,0.2,Calm,Calm,-,N/A,Fog,Fog,0,2012-09-06 13:52:00
10:29 AM,68.0,66.2,94,29.99,1.0,SSW,4.6,-,N/A,,Overcast,210,2012-09-06 14:29:00
10:52 AM,68.0,66.9,96,29.97,2.0,Calm,Calm,-,N/A,,Overcast,0,2012-09-06 14:52:00
11:02 AM,71.6,66.2,83,29.99,2.0,Calm,Calm,-,N/A,,Overcast,0,2012-09-06 15:02:00
11:14 AM,71.6,66.2,83,29.99,3.0,Calm,Calm,-,N/A,,Overcast,0,2012-09-06 15:14:00
11:52 AM,72.0,66.9,84,29.97,7.0,SSW,3.5,-,N/A,,Overcast,210,2012-09-06 15:52:00
12:18 PM,73.4,68.0,83,30.00,7.0,SW,6.9,-,N/A,,Mostly Cloudy,220,2012-09-06 16:18:00
12:52 PM,77.0,69.1,76,29.97,8.0,Variable,5.8,-,N/A,,Mostly Cloudy,0,2012-09-06 16:52:00
1:46 PM,78.8,69.8,74,29.98,9.0,Variable,6.9,-,N/A,,Mostly Cloudy,0,2012-09-06 17:46:00
1:52 PM,78.1,68.0,71,29.96,9.0,Variable,3.5,-,N/A,,Scattered Clouds,0,2012-09-06 17:52:00
2:52 PM,81.0,68.0,65,29.95,10.0,Variable,3.5,-,N/A,,Partly Cloudy,0,2012-09-06 18:52:00
3:52 PM,82.9,68.0,60,29.93,10.0,Variable,4.6,-,N/A,,Partly Cloudy,0,2012-09-06 19:52:00
4:52 PM,82.9,68.0,60,29.91,10.0,Calm,Calm,-,N/A,,Partly Cloudy,0,2012-09-06 20:52:00
5:52 PM,84.0,68.0,58,29.90,10.0,West,5.8,-,N/A,,Partly Cloudy,270,2012-09-06 21:52:00
6:52 PM,82.0,68.0,62,29.90,10.0,South,4.6,-,N/A,,Partly Cloudy,190,2012-09-06 22:52:00
7:52 PM,78.1,69.1,74,29.91,8.0,SSW,4.6,-,N/A,,Partly Cloudy,200,2012-09-06 23:52:00
8:52 PM,78.1,66.9,68,29.93,10.0,SW,4.6,-,N/A,,Partly Cloudy,230,2012-09-07 00:52:00
9:52 PM,73.9,66.9,79,29.93,10.0,SSW,4.6,-,N/A,,Scattered Clouds,200,2012-09-07 01:52:00
10:52 PM,75.2,66.2,73,29.95,10.0,SW,4.6,-,N/A,,Mostly Cloudy,230,2012-09-07 02:52:00